Regional Weather Roundup
Issued by NWS Northern Indiana

Home | Current Version | Previous Version | Text Only | Print | Product List | Glossary Off
Versions: 1 2 3 4 5 6 7 8 9 10 11 12 13 14 15 16 17 18 19 20 21 22 23 24 25 26 27 28 29 30 31 32 33 34 35 36 37 38 39 40 41 42 43 44 45 46 47 48 49 50

000
ASUS43 KIWX 090300
RWRIWX

KIWX WEATHER ROUNDUP
NATIONAL WEATHER SERVICE NORTHERN INDIANA
1000 PM EST MON FEB 08 2016

NOTE: "FAIR" INDICATES FEW OR NO CLOUDS BELOW 12,000 FEET WITH NO
SIGNIFICANT WEATHER AND/OR OBSTRUCTIONS TO VISIBILITY.

* THESE STATIONS ARE NOT UNDER NWS QUALITY CONTROL. THEY ALSO MAY NOT
  REPORT WEATHER SUCH AS PRECIPITATION OR FOG.

INZ001>027-090400-
NORTHERN INDIANA

CITY           SKY/WX    TMP DP  RH WIND       PRES   REMARKS
GARY*          FLURRIES  28  21  74 W14       29.74F WCI  17
SOUTH BEND     LGT SNOW  26  24  92 W10       29.70S FOG     WCI  16
GOSHEN         LGT SNOW  28  25  88 W13       29.68S FOG     WCI  17
ANGOLA*        CLOUDY    30  27  86 NW8       29.64S WCI  23
FORT WAYNE     CLOUDY    27  24  89 W13       29.69S WCI  16

$$
INZ028>050-090400-
CENTRAL INDIANA

CITY           SKY/WX    TMP DP  RH WIND       PRES   REMARKS
LAFAYETTE      CLOUDY    23  17  78 W12       29.78S WCI  12
KOKOMO*        CLOUDY    25  18  74 W20       29.72F WCI  11
MUNCIE*        FLURRIES  26  19  74 W14G23    29.72S WCI  14
INDIANAPOLIS   FLURRIES  22  16  78 W13       29.76F WCI  10

$$
MIZ043>046-050>051-056>058-064>065-071>073-077>080-090400-
SOUTHWEST LOWER MICHIGAN

CITY           SKY/WX    TMP DP  RH WIND       PRES   REMARKS
BATTLE CREEK   LGT SNOW  31  28  89 W10       29.63R FOG     WCI  22
BENTON HARBOR  LGT SNOW  30  27  88 W10       29.68F FOG     WCI  21
COLDWATER*     LGT SNOW  30  28  92 W14       29.63S WCI  20
HILLSDALE*     CLOUDY    30  29  96 W13G18    29.60S WCI  20
HOLLAND        CLOUDY    33  30  88 W8        29.63F WCI  26
GRAND RAPIDS   LGT SNOW  33  31  92 W8        29.61F FOG     WCI  26
KALAMAZOO      LGT SNOW  30  26  85 W13       29.64S FOG     WCI  20
STURGIS*       FLURRIES  29  26  87 W8        29.64S WCI  21
THREE RIVERS*  CLOUDY    30  27  88 W10       29.66S WCI  21

$$
OHZ001>008-015>018-024>025-090400-
NORTHWEST OHIO

CITY           SKY/WX    TMP DP  RH WIND       PRES   REMARKS
DEFIANCE       CLOUDY    33  26  75 W10G20    29.65S WCI  25
FINDLAY        PTCLDY    32  27  81 W9        29.62S WCI  24
TOLEDO EXPRESS MOCLDY    31  26  82 W9        29.62R WCI  23
TOLEDO METCALF CLOUDY    33  27  78 W12       29.62S WCI  24
LIMA           CLOUDY    31  28  89 W15       29.64S WCI  20

$$
AND FOR LAKE MICHIGAN COASTAL AND OPEN LAKE BUOY OBSERVATIONS

STATION/POSITION TEMP    WIND        PRES    VSBY  WAVE
                 AIR SEA DIR/SP/G                  HT/PER
                 (F)     (DEG/KT/KT) (MB)    (MI)  (FT/S)
CALUMET HARBOR    26     260/  4/  9 1006.5F
MICHIGAN CITY     28     260/ 16/ 18   N/A
BURNS HARBOR      28     290/ 17/ 20 1007.1F
SAINT JOSEPH      30     270/ 14/ 16 1006.1F

$$
&&



USA.gov is the U.S. government's official web portal to all federal, state and local government web resources and services.